| time (UTC) | temp C | wind direction | speed KPH | gust KPH | rain 1hr cm | rain 24hr cm | rain mn cm | humidity % | barometer mb |
| 20260507095911 | 13 | 248 | 6.4 | 11.3 | 0.00 | 0.53 | 0.05 | 74 | 1014.7 |
| 20260507094908 | 12 | 249 | 4.8 | 11.3 | 0.00 | 0.53 | 0.05 | 74 | 1014.6 |
| 20260507094406 | 12 | 234 | 4.8 | 14.5 | 0.00 | 0.53 | 0.05 | 75 | 1014.6 |
| 20260507093903 | 12 | 238 | 4.8 | 14.5 | 0.00 | 0.53 | 0.05 | 74 | 1014.6 |
| 20260507093404 | 12 | 265 | 3.2 | 12.9 | 0.00 | 0.53 | 0.05 | 73 | 1014.5 |
| 20260507092905 | 13 | 184 | 3.2 | 11.3 | 0.00 | 0.53 | 0.05 | 75 | 1014.5 |
| 20260507091901 | 12 | 255 | 4.8 | 11.3 | 0.00 | 0.53 | 0.05 | 77 | 1014.6 |
| 20260507091359 | 12 | 256 | 6.4 | 11.3 | 0.00 | 0.53 | 0.05 | 76 | 1014.5 |
| 20260507090857 | 12 | 231 | 4.8 | 8.0 | 0.00 | 0.53 | 0.05 | 76 | 1014.5 |
| 20260507090358 | 12 | 211 | 3.2 | 11.3 | 0.00 | 0.53 | 0.05 | 76 | 1014.5 |
| 20260507085855 | 12 | 235 | 3.2 | 14.5 | 0.00 | 0.53 | 0.05 | 75 | 1014.4 |
| 20260507085355 | 13 | 216 | 9.7 | 14.5 | 0.00 | 0.53 | 0.05 | 76 | 1014.5 |
| 20260507084845 | 12 | 206 | 6.4 | 14.5 | 0.00 | 0.53 | 0.05 | 76 | 1014.4 |
| 20260507084345 | 12 | 192 | 6.4 | 14.5 | 0.00 | 0.53 | 0.05 | 77 | 1014.4 |
| 20260507083843 | 12 | 215 | 4.8 | 11.3 | 0.00 | 0.53 | 0.05 | 77 | 1014.3 |
| 20260507083343 | 12 | 221 | 3.2 | 6.4 | 0.00 | 0.53 | 0.05 | 77 | 1014.3 |
| 20260507082844 | 12 | 219 | 1.6 | 9.7 | 0.00 | 0.53 | 0.05 | 79 | 1014.3 |
| 20260507082340 | 12 | 243 | 3.2 | 9.7 | 0.00 | 0.53 | 0.05 | 79 | 1014.4 |
| 20260507081838 | 12 | 0 | 3.2 | 9.7 | 0.00 | 0.53 | 0.05 | 78 | 1014.3 |
| 20260507081336 | 12 | 179 | 4.8 | 9.7 | 0.00 | 0.53 | 0.05 | 76 | 1014.3 |
| 20260507080835 | 12 | 216 | 4.8 | 9.7 | 0.00 | 0.53 | 0.05 | 78 | 1014.2 |
| 20260507080332 | 12 | 253 | 1.6 | 9.7 | 0.00 | 0.53 | 0.05 | 81 | 1014.3 |
| 20260507075832 | 11 | 208 | 4.8 | 9.7 | 0.00 | 0.53 | 0.05 | 80 | 1014.3 |
| 20260507074332 | 11 | 219 | 1.6 | 4.8 | 0.00 | 0.53 | 0.05 | 80 | 1014.2 |
| 20260507073833 | 11 | 219 | 1.6 | 4.8 | 0.00 | 0.53 | 0.05 | 81 | 1014.2 |
| 20260507073330 | 11 | 219 | 0.0 | 6.4 | 0.00 | 0.53 | 0.05 | 83 | 1014.2 |
| 20260507072829 | 11 | 248 | 1.6 | 6.4 | 0.00 | 0.53 | 0.05 | 82 | 1014.3 |
| 20260507072332 | 11 | 235 | 1.6 | 4.8 | 0.00 | 0.53 | 0.05 | 84 | 1014.1 |
| 20260507071827 | 11 | 57 | 0.0 | 3.2 | 0.00 | 0.53 | 0.05 | 83 | 1014.2 |
| 20260507071327 | 11 | 57 | 0.0 | 3.2 | 0.00 | 0.53 | 0.05 | 83 | 1014.1 |
| 20260507070825 | 10 | 57 | 0.0 | 3.2 | 0.00 | 0.53 | 0.05 | 85 | 1014.1 |
| 20260507070327 | 10 | 58 | 0.0 | 3.2 | 0.00 | 0.53 | 0.05 | 84 | 1014.1 |
| 20260507065822 | 10 | 58 | 1.6 | 3.2 | 0.00 | 0.53 | 0.05 | 84 | 1014.1 |
| 20260507065322 | 10 | 58 | 0.0 | 3.2 | 0.00 | 0.53 | 0.05 | 85 | 1014.1 |
| 20260507064308 | 10 | 45 | 0.0 | 3.2 | 0.00 | 0.53 | 0.05 | 85 | 1014.0 |
| 20260507063808 | 10 | 45 | 1.6 | 3.2 | 0.00 | 0.53 | 0.05 | 85 | 1013.9 |
| 20260507063307 | 10 | 45 | 1.6 | 3.2 | 0.00 | 0.53 | 0.05 | 87 | 1013.9 |
| 20260507062803 | 10 | 45 | 0.0 | 3.2 | 0.00 | 0.53 | 0.05 | 87 | 1013.9 |
| 20260507062306 | 10 | 45 | 0.0 | 3.2 | 0.00 | 0.53 | 0.05 | 88 | 1013.9 |
| 20260507061803 | 9 | 45 | 1.6 | 3.2 | 0.00 | 0.53 | 0.05 | 88 | 1013.9 |
| 20260507061303 | 9 | 45 | 0.0 | 3.2 | 0.00 | 0.53 | 0.05 | 89 | 1013.9 |
| 20260507055800 | 9 | 45 | 1.6 | 3.2 | 0.00 | 0.53 | 0.05 | 90 | 1013.8 |
| 20260507055258 | 9 | 45 | 1.6 | 3.2 | 0.03 | 0.53 | 0.05 | 90 | 1013.7 |
| 20260507054756 | 8 | 45 | 1.6 | 3.2 | 0.03 | 0.53 | 0.05 | 90 | 1013.6 |
| 20260507054254 | 8 | 45 | 0.0 | 3.2 | 0.03 | 0.53 | 0.05 | 90 | 1013.5 |
| 20260507053755 | 8 | 45 | 1.6 | 3.2 | 0.03 | 0.53 | 0.05 | 91 | 1013.6 |
| 20260507053248 | 8 | 45 | 1.6 | 4.8 | 0.03 | 0.53 | 0.05 | 91 | 1013.5 |
| 20260507052746 | 8 | 45 | 3.2 | 4.8 | 0.03 | 0.53 | 0.05 | 91 | 1013.4 |
| 20260507052246 | 8 | 45 | 0.0 | 3.2 | 0.03 | 0.53 | 0.05 | 91 | 1013.4 |
| 20260507051744 | 8 | 45 | 1.6 | 4.8 | 0.03 | 0.53 | 0.05 | 91 | 1013.2 |
| 20260507051238 | 8 | 45 | 3.2 | 4.8 | 0.03 | 0.53 | 0.05 | 90 | 1013.2 |
| 20260507050738 | 8 | 255 | 1.6 | 3.2 | 0.03 | 0.53 | 0.05 | 90 | 1013.1 |
| 20260507050235 | 8 | 255 | 1.6 | 3.2 | 0.03 | 0.53 | 0.05 | 91 | 1013.2 |
| 20260507045736 | 8 | 254 | 1.6 | 3.2 | 0.03 | 0.51 | 0.05 | 90 | 1013.0 |
| 20260507045235 | 8 | 254 | 0.0 | 3.2 | 0.00 | 0.51 | 0.03 | 90 | 1013.0 |
| 20260507044733 | 8 | 254 | 0.0 | 4.8 | 0.00 | 0.51 | 0.03 | 90 | 1012.9 |
| 20260507044234 | 8 | 254 | 1.6 | 4.8 | 0.00 | 0.51 | 0.03 | 90 | 1012.8 |
| 20260507043731 | 8 | 243 | 0.0 | 4.8 | 0.00 | 0.51 | 0.03 | 90 | 1012.8 |
| 20260507043233 | 8 | 238 | 1.6 | 4.8 | 0.00 | 0.51 | 0.03 | 90 | 1012.8 |
| 20260507042731 | 8 | 238 | 1.6 | 4.8 | 0.00 | 0.51 | 0.03 | 90 | 1012.8 |
| 20260507042231 | 8 | 34 | 0.0 | 3.2 | 0.00 | 0.51 | 0.03 | 91 | 1012.8 |
| 20260507041232 | 8 | 231 | 0.0 | 4.8 | 0.00 | 0.51 | 0.03 | 91 | 1012.6 |
| 20260507040731 | 8 | 231 | 1.6 | 4.8 | 0.00 | 0.51 | 0.03 | 91 | 1012.6 |
| 20260507040233 | 8 | 242 | 1.6 | 4.8 | 0.00 | 0.51 | 0.03 | 91 | 1012.6 |
| 20260507035732 | 8 | 242 | 3.2 | 4.8 | 0.00 | 0.51 | 0.03 | 91 | 1012.6 |
| 20260507035231 | 8 | 17 | 0.0 | 3.2 | 0.03 | 0.51 | 0.03 | 91 | 1012.5 |
| 20260507034725 | 8 | 17 | 1.6 | 3.2 | 0.03 | 0.51 | 0.03 | 91 | 1012.5 |
| 20260507034212 | 8 | 17 | 0.0 | 1.6 | 0.03 | 0.51 | 0.03 | 91 | 1012.5 |
| 20260507033714 | 8 | 17 | 0.0 | 3.2 | 0.03 | 0.51 | 0.03 | 91 | 1012.5 |
| 20260507033221 | 8 | 17 | 0.0 | 3.2 | 0.03 | 0.51 | 0.03 | 91 | 1012.4 |
| 20260507032710 | 8 | 17 | 1.6 | 3.2 | 0.03 | 0.51 | 0.03 | 91 | 1012.4 |
| 20260507032207 | 8 | 17 | 1.6 | 3.2 | 0.03 | 0.51 | 0.03 | 91 | 1012.5 |
| 20260507031704 | 8 | 17 | 0.0 | 0.0 | 0.03 | 0.51 | 0.03 | 91 | 1012.4 |
| 20260507031208 | 8 | 17 | 0.0 | 1.6 | 0.03 | 0.51 | 0.03 | 91 | 1012.3 |
| 20260507030200 | 8 | 17 | 1.6 | 1.6 | 0.03 | 0.51 | 0.03 | 91 | 1012.5 |
| 20260507025656 | 8 | 17 | 0.0 | 0.0 | 0.03 | 0.51 | 0.03 | 90 | 1012.4 |
| 20260507025158 | 8 | 17 | 0.0 | 1.6 | 0.00 | 0.51 | 0.00 | 90 | 1012.3 |
| 20260507024643 | 8 | 17 | 0.0 | 3.2 | 0.00 | 0.51 | 0.00 | 90 | 1012.4 |
| 20260507024134 | 8 | 17 | 1.6 | 3.2 | 0.00 | 0.51 | 0.00 | 90 | 1012.3 |
| 20260507023132 | 8 | 17 | 0.0 | 3.2 | 0.00 | 0.51 | 0.00 | 90 | 1012.3 |
| 20260507022127 | 8 | 17 | 0.0 | 3.2 | 0.00 | 0.51 | 0.00 | 90 | 1012.2 |
| 20260507021622 | 8 | 17 | 0.0 | 3.2 | 0.00 | 0.51 | 0.00 | 90 | 1012.2 |
| 20260507021123 | 8 | 17 | 0.0 | 3.2 | 0.00 | 0.51 | 0.00 | 90 | 1012.3 |
| 20260507020620 | 8 | 17 | 0.0 | 4.8 | 0.00 | 0.51 | 0.00 | 90 | 1012.1 |
| 20260507020124 | 8 | 17 | 1.6 | 4.8 | 0.00 | 0.51 | 0.00 | 90 | 1012.2 |
| 20260507015617 | 8 | 17 | 0.0 | 1.6 | 0.00 | 0.51 | 0.00 | 90 | 1012.1 |
| 20260507015117 | 8 | 17 | 0.0 | 3.2 | 0.00 | 0.51 | 0.00 | 90 | 1012.0 |
| 20260507014612 | 8 | 17 | 0.0 | 4.8 | 0.00 | 0.51 | 0.00 | 90 | 1012.0 |
| 20260507014108 | 8 | 17 | 1.6 | 4.8 | 0.00 | 0.51 | 0.00 | 90 | 1012.0 |
| 20260507013609 | 8 | 232 | 3.2 | 8.0 | 0.00 | 0.51 | 0.00 | 90 | 1012.0 |
| 20260507013108 | 8 | 232 | 3.2 | 8.0 | 0.00 | 0.51 | 0.00 | 90 | 1012.0 |
| 20260507012103 | 8 | 202 | 3.2 | 6.4 | 0.00 | 0.51 | 0.00 | 91 | 1012.1 |
| 20260507011605 | 8 | 220 | 0.0 | 0.0 | 0.00 | 0.51 | 0.00 | 91 | 1012.0 |
| 20260507010610 | 8 | 220 | 0.0 | 1.6 | 0.00 | 0.51 | 0.00 | 90 | 1011.9 |
| 20260507010108 | 8 | 220 | 0.0 | 6.4 | 0.00 | 0.51 | 0.00 | 91 | 1011.8 |
| 20260507005553 | 8 | 220 | 1.6 | 6.4 | 0.00 | 0.51 | 0.00 | 91 | 1011.9 |
| 20260507005050 | 8 | 223 | 3.2 | 6.4 | 0.00 | 0.51 | 0.00 | 92 | 1011.9 |
| 20260507004551 | 8 | 223 | 1.6 | 8.0 | 0.00 | 0.51 | 0.00 | 92 | 1011.8 |
| 20260507004049 | 8 | 221 | 4.8 | 8.0 | 0.00 | 0.51 | 0.00 | 92 | 1011.9 |
| 20260507003548 | 8 | 212 | 1.6 | 6.4 | 0.00 | 0.51 | 0.00 | 93 | 1011.8 |
| 20260507002547 | 8 | 186 | 3.2 | 4.8 | 0.00 | 0.51 | 0.00 | 93 | 1011.7 |
| 20260507002045 | 8 | 212 | 1.6 | 3.2 | 0.00 | 0.51 | 0.00 | 93 | 1011.7 |
| 20260507001043 | 8 | 66 | 0.0 | 3.2 | 0.00 | 0.51 | 0.00 | 93 | 1011.7 |
| 20260507000539 | 8 | 66 | 0.0 | 3.2 | 0.00 | 0.51 | 0.00 | 93 | 1011.6 |
| 20260506235534 | 8 | 66 | 1.6 | 6.4 | 0.00 | 0.51 | 0.00 | 93 | 1011.5 |
| 20260506235036 | 8 | 61 | 3.2 | 4.8 | 0.00 | 0.51 | 0.00 | 93 | 1011.5 |
| 20260506234524 | 8 | 61 | 1.6 | 4.8 | 0.00 | 0.51 | 0.00 | 93 | 1011.5 |
| 20260506234022 | 7 | 59 | 1.6 | 4.8 | 0.00 | 0.51 | 0.00 | 93 | 1011.4 |
| 20260506233521 | 7 | 61 | 3.2 | 4.8 | 0.00 | 0.51 | 0.00 | 93 | 1011.5 |
| 20260506233020 | 7 | 61 | 1.6 | 4.8 | 0.00 | 0.51 | 0.00 | 93 | 1011.5 |
| 20260506232518 | 7 | 61 | 0.0 | 4.8 | 0.00 | 0.51 | 0.00 | 93 | 1011.5 |
| 20260506232018 | 7 | 61 | 1.6 | 4.8 | 0.00 | 0.51 | 0.00 | 92 | 1011.4 |
| 20260506231518 | 7 | 61 | 0.0 | 4.8 | 0.00 | 0.51 | 0.00 | 92 | 1011.4 |
| 20260506231015 | 7 | 61 | 1.6 | 6.4 | 0.00 | 0.51 | 0.00 | 92 | 1011.5 |
| 20260506230512 | 7 | 61 | 3.2 | 6.4 | 0.00 | 0.51 | 0.00 | 92 | 1011.4 |
| 20260506230044 | 7 | 59 | 0.0 | 3.2 | 0.00 | 0.51 | 0.00 | 92 | 1011.4 |
| 20260506225452 | 7 | 59 | 1.6 | 6.4 | 0.00 | 0.51 | 0.00 | 92 | 1011.2 |
| 20260506224950 | 7 | 59 | 3.2 | 6.4 | 0.00 | 0.51 | 0.00 | 92 | 1011.1 |
| 20260506224449 | 7 | 54 | 1.6 | 4.8 | 0.00 | 0.51 | 0.00 | 92 | 1011.1 |
| 20260506223949 | 7 | 54 | 3.2 | 4.8 | 0.00 | 0.51 | 0.00 | 92 | 1011.2 |
| 20260506223444 | 7 | 54 | 3.2 | 6.4 | 0.00 | 0.51 | 0.00 | 92 | 1011.1 |
| 20260506222943 | 7 | 54 | 4.8 | 6.4 | 0.00 | 0.51 | 0.00 | 92 | 1011.1 |
| 20260506221434 | 7 | 70 | 1.6 | 3.2 | 0.00 | 0.51 | 0.00 | 92 | 1011.1 |
| 20260506220937 | 7 | 70 | 1.6 | 3.2 | 0.00 | 0.51 | 0.00 | 92 | 1011.2 |
| 20260506220434 | 7 | 70 | 1.6 | 4.8 | 0.00 | 0.51 | 0.00 | 92 | 1011.1 |
| 20260506215425 | 8 | 70 | 3.2 | 6.4 | 0.00 | 0.51 | 0.51 | 92 | 1011.0 |
| 20260506214925 | 8 | 73 | 3.2 | 6.4 | 0.00 | 0.51 | 0.51 | 92 | 1011.0 |
| 20260506214422 | 8 | 67 | 3.2 | 6.4 | 0.00 | 0.51 | 0.51 | 92 | 1011.0 |
| 20260506213920 | 8 | 74 | 1.6 | 4.8 | 0.00 | 0.51 | 0.51 | 92 | 1011.0 |
| 20260506213417 | 8 | 74 | 1.6 | 6.4 | 0.00 | 0.51 | 0.51 | 92 | 1011.0 |
| 20260506212915 | 8 | 74 | 4.8 | 6.4 | 0.00 | 0.51 | 0.51 | 92 | 1011.0 |
| 20260506212414 | 8 | 53 | 4.8 | 6.4 | 0.00 | 0.51 | 0.51 | 92 | 1011.0 |
| 20260506211414 | 8 | 61 | 1.6 | 6.4 | 0.00 | 0.51 | 0.51 | 92 | 1010.9 |
| 20260506210919 | 8 | 61 | 3.2 | 6.4 | 0.00 | 0.51 | 0.51 | 92 | 1011.0 |
| 20260506210407 | 8 | 61 | 3.2 | 6.4 | 0.00 | 0.51 | 0.51 | 92 | 1010.9 |
| 20260506205904 | 8 | 58 | 3.2 | 6.4 | 0.00 | 0.51 | 0.51 | 92 | 1011.0 |
| 20260506205405 | 8 | 58 | 3.2 | 6.4 | 0.00 | 0.51 | 0.51 | 91 | 1011.1 |
| 20260506204907 | 8 | 62 | 3.2 | 6.4 | 0.00 | 0.51 | 0.51 | 91 | 1011.1 |
| 20260506204357 | 8 | 61 | 3.2 | 4.8 | 0.00 | 0.51 | 0.51 | 91 | 1011.2 |
| 20260506203856 | 8 | 61 | 3.2 | 6.4 | 0.00 | 0.51 | 0.51 | 91 | 1011.0 |
| 20260506202836 | 8 | 51 | 3.2 | 4.8 | 0.00 | 0.51 | 0.51 | 91 | 1011.0 |
| 20260506202333 | 8 | 44 | 1.6 | 6.4 | 0.00 | 0.51 | 0.51 | 91 | 1010.9 |
| 20260506201828 | 8 | 42 | 4.8 | 6.4 | 0.00 | 0.51 | 0.51 | 91 | 1010.9 |
| 20260506201325 | 8 | 63 | 3.2 | 4.8 | 0.00 | 0.51 | 0.51 | 90 | 1010.9 |
| 20260506200812 | 8 | 67 | 3.2 | 4.8 | 0.00 | 0.51 | 0.51 | 90 | 1010.9 |
| 20260506200314 | 8 | 67 | 3.2 | 4.8 | 0.00 | 0.51 | 0.51 | 90 | 1010.9 |
| 20260506195812 | 8 | 67 | 0.0 | 6.4 | 0.00 | 0.51 | 0.51 | 90 | 1010.8 |
| 20260506195306 | 8 | 67 | 3.2 | 6.4 | 0.00 | 0.51 | 0.51 | 90 | 1010.8 |
| 20260506194807 | 8 | 67 | 3.2 | 4.8 | 0.00 | 0.51 | 0.51 | 89 | 1010.9 |
| 20260506194305 | 8 | 67 | 1.6 | 4.8 | 0.00 | 0.51 | 0.51 | 89 | 1010.7 |
| 20260506193807 | 8 | 67 | 3.2 | 4.8 | 0.00 | 0.51 | 0.51 | 89 | 1010.7 |
| 20260506193256 | 9 | 241 | 0.0 | 3.2 | 0.00 | 0.51 | 0.51 | 89 | 1010.6 |
| 20260506192749 | 9 | 240 | 0.0 | 0.0 | 0.00 | 0.51 | 0.51 | 88 | 1010.6 |
| 20260506192243 | 9 | 240 | 0.0 | 0.0 | 0.00 | 0.51 | 0.51 | 88 | 1010.5 |
| 20260506191737 | 10 | 240 | 0.0 | 0.0 | 0.00 | 0.51 | 0.51 | 88 | 1010.3 |
| 20260506191234 | 10 | 240 | 0.0 | 0.0 | 0.00 | 0.51 | 0.51 | 87 | 1010.3 |
| 20260506190733 | 10 | 240 | 0.0 | 1.6 | 0.00 | 0.51 | 0.51 | 87 | 1010.4 |
| 20260506190232 | 10 | 240 | 0.0 | 3.2 | 0.00 | 0.51 | 0.51 | 86 | 1010.3 |
| 20260506185732 | 10 | 240 | 1.6 | 3.2 | 0.00 | 0.51 | 0.51 | 85 | 1010.3 |
| 20260506184732 | 10 | 238 | 1.6 | 8.0 | 0.00 | 0.51 | 0.51 | 84 | 1010.0 |
| 20260506184231 | 10 | 238 | 3.2 | 8.0 | 0.00 | 0.51 | 0.51 | 84 | 1009.9 |
| 20260506183732 | 10 | 241 | 3.2 | 4.8 | 0.00 | 0.51 | 0.51 | 84 | 1009.9 |
| 20260506183236 | 10 | 223 | 3.2 | 4.8 | 0.00 | 0.51 | 0.51 | 83 | 1009.8 |
| 20260506182736 | 11 | 239 | 3.2 | 6.4 | 0.00 | 0.51 | 0.51 | 82 | 1009.8 |
| 20260506182232 | 11 | 250 | 3.2 | 6.4 | 0.00 | 0.51 | 0.51 | 82 | 1009.8 |
| 20260506181735 | 11 | 213 | 3.2 | 4.8 | 0.00 | 0.53 | 0.51 | 81 | 1009.7 |
| 20260506181229 | 11 | 241 | 1.6 | 4.8 | 0.00 | 0.53 | 0.51 | 82 | 1009.7 |
| 20260506180726 | 11 | 241 | 3.2 | 6.4 | 0.00 | 0.56 | 0.51 | 81 | 1009.7 |
| 20260506180246 | 11 | 246 | 3.2 | 6.4 | 0.00 | 0.58 | 0.51 | 81 | 1009.6 |
| 20260506173705 | 11 | 196 | 4.8 | 12.9 | 0.00 | 0.61 | 0.51 | 83 | 1009.6 |
| 20260506173205 | 11 | 204 | 8.0 | 12.9 | 0.00 | 0.61 | 0.51 | 83 | 1009.5 |
| 20260506172702 | 11 | 213 | 6.4 | 9.7 | 0.00 | 0.61 | 0.51 | 83 | 1009.5 |
| 20260506172204 | 11 | 215 | 4.8 | 9.7 | 0.00 | 0.61 | 0.51 | 83 | 1009.5 |
| 20260506171703 | 11 | 161 | 6.4 | 12.9 | 0.00 | 0.61 | 0.51 | 83 | 1009.5 |
| 20260506171203 | 11 | 196 | 6.4 | 12.9 | 0.00 | 0.61 | 0.51 | 83 | 1009.3 |
| 20260506170659 | 11 | 196 | 4.8 | 6.4 | 0.00 | 0.61 | 0.51 | 85 | 1009.3 |
| 20260506165652 | 11 | 207 | 0.0 | 9.7 | 0.00 | 0.61 | 0.51 | 84 | 1009.1 |
| 20260506164149 | 11 | 207 | 8.0 | 12.9 | 0.00 | 0.61 | 0.51 | 84 | 1009.0 |
| 20260506163144 | 11 | 182 | 3.2 | 11.3 | 0.00 | 0.61 | 0.51 | 86 | 1009.2 |
| 20260506162643 | 11 | 217 | 8.0 | 12.9 | 0.00 | 0.61 | 0.51 | 85 | 1009.2 |
| 20260506162155 | 11 | 196 | 4.8 | 12.9 | 0.00 | 0.61 | 0.51 | 86 | 1009.1 |
| 20260506161141 | 11 | 215 | 4.8 | 12.9 | 0.00 | 0.61 | 0.51 | 86 | 1008.9 |
| 20260506160641 | 10 | 202 | 4.8 | 14.5 | 0.00 | 0.61 | 0.51 | 86 | 1009.0 |
| 20260506160147 | 10 | 190 | 6.4 | 14.5 | 0.00 | 0.61 | 0.51 | 86 | 1009.2 |
| 20260506155635 | 10 | 207 | 4.8 | 11.3 | 0.00 | 0.61 | 0.51 | 87 | 1009.2 |
| 20260506155137 | 11 | 205 | 3.2 | 8.0 | 0.00 | 0.61 | 0.51 | 88 | 1009.2 |
| 20260506154634 | 10 | 217 | 4.8 | 8.0 | 0.00 | 0.61 | 0.51 | 87 | 1009.1 |
| 20260506154131 | 10 | 217 | 3.2 | 8.0 | 0.00 | 0.61 | 0.51 | 87 | 1009.1 |
| 20260506153624 | 10 | 216 | 3.2 | 6.4 | 0.00 | 0.61 | 0.51 | 87 | 1009.1 |
| 20260506153116 | 10 | 215 | 3.2 | 12.9 | 0.00 | 0.61 | 0.51 | 87 | 1009.0 |
| 20260506152614 | 10 | 215 | 4.8 | 12.9 | 0.00 | 0.61 | 0.51 | 87 | 1008.9 |
| 20260506151612 | 10 | 238 | 1.6 | 8.0 | 0.03 | 0.61 | 0.51 | 88 | 1008.9 |
| 20260506151106 | 10 | 267 | 3.2 | 8.0 | 0.03 | 0.61 | 0.51 | 88 | 1009.0 |
| 20260506150603 | 10 | 250 | 1.6 | 4.8 | 0.03 | 0.61 | 0.51 | 88 | 1009.2 |
| 20260506150118 | 10 | 245 | 1.6 | 4.8 | 0.03 | 0.61 | 0.51 | 89 | 1009.1 |
| 20260506145605 | 10 | 221 | 1.6 | 4.8 | 0.03 | 0.58 | 0.51 | 88 | 1009.3 |
| 20260506145103 | 10 | 235 | 1.6 | 6.4 | 0.05 | 0.58 | 0.51 | 89 | 1009.3 |
| 20260506144603 | 10 | 247 | 3.2 | 6.4 | 0.05 | 0.58 | 0.51 | 89 | 1009.2 |
| 20260506144100 | 10 | 13 | 3.2 | 4.8 | 0.05 | 0.58 | 0.51 | 89 | 1009.2 |
| 20260506143617 | 10 | 28 | 3.2 | 4.8 | 0.05 | 0.58 | 0.51 | 89 | 1009.2 |
| 20260506143053 | 10 | 259 | 1.6 | 9.7 | 0.08 | 0.58 | 0.51 | 89 | 1009.2 |
| 20260506142550 | 10 | 255 | 1.6 | 9.7 | 0.15 | 0.58 | 0.51 | 89 | 1009.3 |
| 20260506141547 | 10 | 259 | 0.0 | 4.8 | 0.15 | 0.58 | 0.48 | 89 | 1009.3 |
| 20260506141045 | 10 | 259 | 0.0 | 4.8 | 0.18 | 0.58 | 0.48 | 89 | 1009.3 |
| 20260506140537 | 10 | 259 | 1.6 | 6.4 | 0.20 | 0.58 | 0.48 | 89 | 1009.3 |
| 20260506135534 | 10 | 245 | 4.8 | 11.3 | 0.23 | 0.36 | 0.48 | 90 | 1009.2 |
| 20260506135031 | 9 | 246 | 4.8 | 12.9 | 0.23 | 0.36 | 0.46 | 90 | 1009.1 |
| 20260506134533 | 9 | 215 | 4.8 | 16.1 | 0.28 | 0.36 | 0.46 | 90 | 1009.1 |
| 20260506134036 | 9 | 261 | 9.7 | 16.1 | 0.33 | 0.36 | 0.43 | 90 | 1008.9 |
| 20260506133531 | 9 | 245 | 9.7 | 19.3 | 0.36 | 0.36 | 0.43 | 90 | 1008.8 |
| 20260506133031 | 9 | 225 | 6.4 | 19.3 | 0.36 | 0.36 | 0.41 | 89 | 1009.0 |
| 20260506132533 | 9 | 241 | 6.4 | 16.1 | 0.33 | 0.36 | 0.36 | 89 | 1009.1 |
| 20260506132031 | 9 | 238 | 6.4 | 19.3 | 0.33 | 0.36 | 0.33 | 89 | 1009.1 |
| 20260506131031 | 9 | 230 | 8.0 | 16.1 | 0.30 | 0.36 | 0.30 | 88 | 1008.9 |
| 20260506130110 | 10 | 249 | 6.4 | 19.3 | 0.25 | 0.36 | 0.25 | 87 | 1008.6 |
| 20260506125524 | 10 | 242 | 6.4 | 22.5 | 0.25 | 0.10 | 0.23 | 86 | 1008.6 |
| 20260506125021 | 10 | 236 | 6.4 | 32.2 | 0.23 | 0.10 | 0.23 | 85 | 1008.4 |
| 20260506124521 | 11 | 227 | 14.5 | 35.4 | 0.18 | 0.10 | 0.15 | 83 | 1008.3 |
| 20260506124017 | 11 | 197 | 24.1 | 35.4 | 0.10 | 0.10 | 0.10 | 83 | 1008.0 |
| 20260506123515 | 12 | 197 | 9.7 | 19.3 | 0.08 | 0.10 | 0.05 | 84 | 1007.7 |
| 20260506123014 | 12 | 215 | 6.4 | 19.3 | 0.05 | 0.10 | 0.05 | 82 | 1007.3 |
| 20260506122514 | 13 | 194 | 9.7 | 19.3 | 0.03 | 0.10 | 0.03 | 80 | 1007.1 |
| 20260506122014 | 13 | 186 | 11.3 | 17.7 | 0.00 | 0.10 | 0.00 | 79 | 1006.8 |
| 20260506121518 | 13 | 217 | 6.4 | 24.1 | 0.00 | 0.10 | 0.00 | 78 | 1006.6 |
| 20260506120512 | 14 | 205 | 4.8 | 11.3 | 0.00 | 0.10 | 0.00 | 73 | 1006.3 |
| 20260506120048 | 14 | 200 | 8.0 | 11.3 | 0.00 | 0.10 | 0.00 | 72 | 1006.3 |
| 20260506115510 | 14 | 215 | 3.2 | 6.4 | 0.00 | 0.10 | 0.00 | 72 | 1006.2 |
| 20260506115011 | 14 | 224 | 3.2 | 6.4 | 0.00 | 0.10 | 0.00 | 72 | 1006.2 |
| 20260506114500 | 14 | 227 | 1.6 | 6.4 | 0.00 | 0.10 | 0.00 | 72 | 1006.2 |
| 20260506113957 | 14 | 223 | 3.2 | 6.4 | 0.00 | 0.10 | 0.00 | 72 | 1006.2 |
| 20260506113457 | 14 | 236 | 3.2 | 6.4 | 0.00 | 0.10 | 0.00 | 72 | 1006.2 |
| 20260506112954 | 14 | 211 | 3.2 | 6.4 | 0.00 | 0.10 | 0.00 | 72 | 1006.2 |
| 20260506112457 | 14 | 211 | 3.2 | 8.0 | 0.00 | 0.10 | 0.00 | 72 | 1006.1 |
| 20260506111957 | 14 | 182 | 4.8 | 8.0 | 0.00 | 0.10 | 0.00 | 73 | 1006.1 |
| 20260506105942 | 14 | 227 | 3.2 | 8.0 | 0.00 | 0.10 | 0.00 | 72 | 1006.2 |
| 20260506105441 | 14 | 232 | 3.2 | 8.0 | 0.00 | 0.10 | 0.00 | 72 | 1006.2 |
| 20260506103931 | 14 | 243 | 3.2 | 8.0 | 0.00 | 0.10 | 0.00 | 71 | 1006.1 |
| 20260506103431 | 14 | 226 | 3.2 | 6.4 | 0.00 | 0.10 | 0.00 | 71 | 1006.2 |
| 20260506102933 | 15 | 265 | 3.2 | 9.7 | 0.00 | 0.10 | 0.00 | 72 | 1006.2 |
| 20260506102431 | 15 | 217 | 4.8 | 9.7 | 0.00 | 0.10 | 0.00 | 72 | 1006.2 |
| 20260506101934 | 14 | 212 | 6.4 | 9.7 | 0.00 | 0.10 | 0.00 | 72 | 1006.2 |
| 20260506101431 | 14 | 200 | 3.2 | 6.4 | 0.00 | 0.10 | 0.00 | 74 | 1006.2 |
| 20260506100934 | 14 | 205 | 4.8 | 8.0 | 0.00 | 0.10 | 0.00 | 73 | 1006.3 |
| 20260506100432 | 14 | 190 | 4.8 | 9.7 | 0.00 | 0.10 | 0.00 | 73 | 1006.4 |
| 20260506095931 | 14 | 216 | 4.8 | 11.3 | 0.00 | 0.10 | 0.00 | 73 | 1006.3 |